When you browse on this site, cookies collect data to enhance your experience and personalize the content and advertising you see.
Visit our Privacy Policy to learn more. By continuing to use the site, you agree to this use of cookies and data.
  • In Lithuania
  • List of Countries
  • For 7 days
  • Water Temperature
  • Satellite Maps
  • Weather Map
  • Weather Widgets
  • user-avatar
    Login

    Hourly Weather Tibissa

    Today, 11 December, Tuesday

    Time Temperature Precipitation Wind Pressure Humidity
    00:00 +6°C° 0 mm 4 mps 689 mmHg 87%
    01:00 +7°C° 0 mm 3 mps 689 mmHg 85%
    02:00 +5°C° 0 mm 3 mps 688 mmHg 84%
    03:00 +5°C° 0 mm 3 mps 688 mmHg 83%
    04:00 +5°C° 0 mm 3 mps 688 mmHg 82%
    05:00 +6°C° 0 mm 2 mps 688 mmHg 81%
    06:00 +6°C° 0 mm 2 mps 688 mmHg 79%
    07:00 +6°C° 0 mm 2 mps 688 mmHg 77%
    08:00 +7°C° 0 mm 2 mps 688 mmHg 68%
    09:00 +9°C° 0 mm 2 mps 688 mmHg 60%
    10:00 +10°C° 0 mm 2 mps 689 mmHg 51%
    11:00 +12°C° 0 mm 2 mps 689 mmHg 45%
    12:00 +13°C° 0 mm 3 mps 689 mmHg 40%
    13:00 +14°C° 0 mm 3 mps 689 mmHg 34%
    14:00 +14°C° 0 mm 3 mps 689 mmHg 35%
    15:00 +14°C° 0 mm 3 mps 688 mmHg 35%
    16:00 +14°C° 0 mm 3 mps 688 mmHg 35%
    17:00 +13°C° 0 mm 3 mps 688 mmHg 41%
    18:00 +12°C° 0 mm 2 mps 687 mmHg 48%
    19:00 +10°C° 0 mm 1 mps 687 mmHg 54%
    20:00 +10°C° 0 mm 1 mps 687 mmHg 56%
    21:00 +10°C° 0 mm 1 mps 687 mmHg 57%
    22:00 +9°C° 0 mm 1 mps 687 mmHg 59%
    23:00 +9°C° 0 mm 1 mps 687 mmHg 59%

    Tomorrow, 12 December, Wednesday

    Time Temperature Precipitation Wind Pressure Humidity
    00:00 +9°C° 0 mm 1 mps 687 mmHg 59%
    01:00 +8°C° 0 mm 1 mps 687 mmHg 60%
    02:00 +8°C° 0 mm 1 mps 687 mmHg 60%
    03:00 +8°C° 0 mm 1 mps 686 mmHg 60%
    04:00 +8°C° 0 mm 1 mps 686 mmHg 61%
    05:00 +7°C° 0 mm 1 mps 686 mmHg 61%
    06:00 +7°C° 0 mm 1 mps 686 mmHg 61%
    07:00 +7°C° 0 mm 1 mps 686 mmHg 61%
    08:00 +9°C° 0 mm 1 mps 687 mmHg 54%
    09:00 +11°C° 0 mm 1 mps 687 mmHg 47%
    10:00 +13°C° 0 mm 1 mps 688 mmHg 40%
    11:00 +14°C° 0 mm 1 mps 688 mmHg 36%
    12:00 +15°C° 0 mm 2 mps 688 mmHg 32%
    13:00 +16°C° 0 mm 2 mps 687 mmHg 28%
    14:00 +16°C° 0 mm 2 mps 687 mmHg 29%
    15:00 +16°C° 0 mm 2 mps 687 mmHg 29%
    16:00 +16°C° 0 mm 2 mps 686 mmHg 29%
    17:00 +14°C° 0 mm 2 mps 686 mmHg 35%
    18:00 +13°C° 0 mm 2 mps 686 mmHg 41%
    19:00 +11°C° 0 mm 1 mps 685 mmHg 47%
    20:00 +11°C° 0 mm 1 mps 685 mmHg 49%
    21:00 +10°C° 0 mm 1 mps 685 mmHg 51%
    22:00 +9°C° 0 mm 1 mps 685 mmHg 53%
    23:00 +9°C° 0 mm 1 mps 685 mmHg 53%

    Day after tomorrow, 13 December, Thursday

    Time Temperature Precipitation Wind Pressure Humidity
    00:00 +9°C° 0 mm 1 mps 684 mmHg 53%
    01:00 +9°C° 0 mm 1 mps 684 mmHg 53%
    02:00 +9°C° 0 mm 1 mps 684 mmHg 53%
    03:00 +8°C° 0 mm 1 mps 684 mmHg 52%
    04:00 +8°C° 0 mm 1 mps 684 mmHg 51%
    05:00 +8°C° 0 mm 1 mps 683 mmHg 52%
    06:00 +8°C° 0 mm 1 mps 683 mmHg 52%
    07:00 +7°C° 0 mm 1 mps 683 mmHg 53%
    08:00 +9°C° 0 mm 1 mps 683 mmHg 48%
    09:00 +10°C° 0 mm 2 mps 684 mmHg 42%
    10:00 +13°C° 0 mm 2 mps 684 mmHg 37%
    11:00 +13°C° 0 mm 3 mps 684 mmHg 35%
    12:00 +14°C° 0 mm 4 mps 683 mmHg 33%
    13:00 +15°C° 0 mm 4 mps 683 mmHg 31%
    14:00 +15°C° 0 mm 5 mps 683 mmHg 32%
    15:00 +15°C° 0 mm 5 mps 682 mmHg 33%
    16:00 +14°C° 0 mm 5 mps 682 mmHg 35%
    17:00 +13°C° 0 mm 5 mps 681 mmHg 40%
    18:00 +11°C° 0 mm 4 mps 681 mmHg 45%
    19:00 +10°C° 0 mm 4 mps 680 mmHg 51%
    20:00 +8°C° 0 mm 4 mps 680 mmHg 52%
    21:00 +8°C° 0 mm 4 mps 680 mmHg 54%
    22:00 +7°C° 0 mm 4 mps 680 mmHg 55%
    23:00 +7°C° 0 mm 4 mps 679 mmHg 55%

    14 December, Friday

    Time Temperature Precipitation Wind Pressure Humidity
    00:00 +7°C° 0 mm 4 mps 679 mmHg 55%
    01:00 +7°C° 0 mm 4 mps 679 mmHg 55%
    02:00 +7°C° 0 mm 4 mps 679 mmHg 56%
    03:00 +7°C° 0 mm 4 mps 678 mmHg 57%
    04:00 +7°C° 0 mm 4 mps 678 mmHg 58%
    05:00 +6°C° 0 mm 4 mps 678 mmHg 61%
    06:00 +5°C° 0 mm 4 mps 678 mmHg 64%
    07:00 +5°C° 0 mm 4 mps 677 mmHg 68%
    08:00 +5°C° 0 mm 5 mps 678 mmHg 62%
    09:00 +5°C° 0 mm 7 mps 678 mmHg 56%
    10:00 +6°C° 0 mm 8 mps 678 mmHg 50%
    11:00 +6°C° 0.2 mm 8 mps 678 mmHg 52%
    12:00 +6°C° 0.2 mm 8 mps 677 mmHg 54%
    13:00 +6°C° 0.2 mm 9 mps 677 mmHg 56%
    14:00 +6°C° 0.7 mm 8 mps 677 mmHg 61%
    15:00 +5°C° 0.7 mm 8 mps 677 mmHg 66%
    16:00 +5°C° 0.7 mm 8 mps 677 mmHg 70%
    17:00 +5°C° 0.3 mm 8 mps 678 mmHg 72%
    18:00 +3°C° 0.3 mm 9 mps 678 mmHg 74%
    19:00 +3°C° 0.3 mm 9 mps 679 mmHg 76%
    20:00 +3°C° 0.7 mm 10 mps 680 mmHg 78%
    21:00 +3°C° 0.7 mm 10 mps 681 mmHg 80%
    22:00 +3°C° 0.7 mm 10 mps 681 mmHg 82%
    23:00 +4°C° 0.6 mm 12 mps 682 mmHg 83%

    15 December, Saturday

    Time Temperature Precipitation Wind Pressure Humidity
    00:00 +4°C° 0.6 mm 13 mps 682 mmHg 84%
    01:00 +5°C° 0.6 mm 14 mps 683 mmHg 85%
    02:00 +5°C° 0.1 mm 14 mps 683 mmHg 83%
    03:00 +4°C° 0.1 mm 14 mps 683 mmHg 82%
    04:00 +4°C° 0.1 mm 14 mps 683 mmHg 80%
    05:00 +3°C° 0 mm 14 mps 684 mmHg 79%
    06:00 +3°C° 0 mm 13 mps 684 mmHg 78%
    07:00 +3°C° 0 mm 13 mps 685 mmHg 78%
    08:00 +3°C° 0 mm 14 mps 685 mmHg 73%
    09:00 +3°C° 0 mm 14 mps 686 mmHg 69%
    10:00 +4°C° 0 mm 14 mps 687 mmHg 65%
    11:00 +4°C° 0 mm 14 mps 687 mmHg 65%
    12:00 +5°C° 0 mm 13 mps 687 mmHg 66%
    13:00 +5°C° 0 mm 12 mps 687 mmHg 67%
    14:00 +5°C° 0 mm 12 mps 687 mmHg 70%
    15:00 +6°C° 0 mm 11 mps 687 mmHg 73%
    16:00 +6°C° 0 mm 10 mps 687 mmHg 76%
    17:00 +6°C° 0.1 mm 10 mps 688 mmHg 77%
    18:00 +6°C° 0.1 mm 10 mps 688 mmHg 79%
    19:00 +5°C° 0.1 mm 9 mps 689 mmHg 81%
    20:00 +5°C° 0.1 mm 9 mps 689 mmHg 81%
    21:00 +5°C° 0.1 mm 10 mps 689 mmHg 81%
    22:00 +5°C° 0.1 mm 10 mps 690 mmHg 81%
    23:00 +5°C° 0 mm 9 mps 690 mmHg 82%

    16 December, Sunday

    Time Temperature Precipitation Wind Pressure Humidity
    00:00 +5°C° 0 mm 9 mps 690 mmHg 84%
    01:00 +4°C° 0 mm 8 mps 690 mmHg 85%
    02:00 +4°C° 0 mm 8 mps 690 mmHg 85%
    03:00 +4°C° 0 mm 7 mps 690 mmHg 84%
    04:00 +4°C° 0 mm 7 mps 690 mmHg 83%
    05:00 +4°C° 0 mm 6 mps 690 mmHg 84%
    06:00 +5°C° 0 mm 5 mps 690 mmHg 85%
    07:00 +5°C° 0 mm 5 mps 690 mmHg 86%
    08:00 +6°C° 0 mm 4 mps 691 mmHg 81%
    09:00 +6°C° 0 mm 4 mps 691 mmHg 76%
    10:00 +7°C° 0 mm 4 mps 692 mmHg 71%
    11:00 +8°C° 0 mm 4 mps 692 mmHg 64%
    12:00 +11°C° 0 mm 4 mps 692 mmHg 56%
    13:00 +12°C° 0 mm 3 mps 692 mmHg 48%
    14:00 +12°C° 0 mm 3 mps 692 mmHg 46%
    15:00 +13°C° 0 mm 3 mps 692 mmHg 44%
    16:00 +14°C° 0 mm 2 mps 691 mmHg 42%
    17:00 +13°C° 0 mm 2 mps 691 mmHg 48%
    18:00 +11°C° 0 mm 1 mps 691 mmHg 54%
    19:00 +9°C° 0 mm 0 mps 691 mmHg 60%
    20:00 +10°C° 0 mm 1 mps 691 mmHg 58%
    21:00 +9°C° 0 mm 1 mps 691 mmHg 57%
    22:00 +9°C° 0 mm 1 mps 691 mmHg 55%
    23:00 +9°C° 0 mm 1 mps 691 mmHg 53%
    Show more